Flag for Germany Weather past 2 weeks in Landshut, Bavaria, Germany

Now
52 °F

Passing clouds.


Feels Like: 51 °F
Forecast: 45 / 52 °F
Wind: 5 mph from Northwest

Location: Muenchen Flughafen

Current Time: Mar 28, 2015 at 5:32:15 PM

Latest Report: Mar 28, 2015 at 5:00 PM


Visibility: 19 mi

Pressure: 30.04 "Hg

Humidity: 41%

Dew point: 29 °F

Location of LandshutLocation

Historic Weather in Landshut — Graph

°F

Landshut temperature yesterday

Maximum temperature yesterday: 47 °F (at 4:00 PM)
Minimum temperature yesterday: 39 °F (at 4:00 AM)
Average temperature yesterday: 43 °F

Past Weeks' High & Low Weather Summary

 TemperatureHumidityPressure
High64 °F (Mar 17, 3:00 PM)99% (Mar 24, 1:00 AM)30.33 "Hg (Mar 24, 1:00 AM)
Low23 °F (Mar 21, 6:00 AM)31% (Mar 20, 5:00 PM)29.54 "Hg (Mar 25, 5:00 PM)
Average42 °F72%30.10 "Hg
* Reported Mar 13 4:00 PM — Mar 28 4:00 PM, Landshut, Weather by CustomWeather, © 2015

Note: Actual official high and low records may vary slightly from our data, if they occured in-between our weather recording intervals... More about our weather records

Advertising

Landshut weather history for previous 24 hours

 ConditionsComfort  
Time TempWeatherWind HumidityBarometerVisibility
4:00 PM
Sat, Mar 28
53 °FSunny.5 mph40%30.06 "Hg19 mi
3:00 PM52 °FSunny.5 mph43%30.09 "Hg19 mi
2:00 PM52 °FPassing clouds.6 mph43%30.12 "Hg19 mi
1:00 PM50 °FScattered clouds.7 mph45%30.14 "Hg19 mi
12:00 PM50 °FScattered clouds.6 mph46%30.18 "Hg19 mi
11:00 AM46 °FPartly sunny.5 mph50%30.22 "Hg22 mi
10:00 AM44 °FPartly sunny.5 mph57%30.25 "Hg22 mi
9:00 AM42 °FOvercast.5 mph66%30.26 "Hg19 mi
8:00 AM40 °FOvercast.5 mph72%30.27 "Hg19 mi
7:00 AM38 °FOvercast.5 mph75%30.29 "Hg19 mi
6:00 AM37 °FOvercast.5 mph78%30.28 "Hg19 mi
5:00 AM38 °FOvercast.5 mph78%30.27 "Hg22 mi
4:00 AM37 °FOvercast.5 mph80%30.27 "Hg22 mi
3:00 AM37 °FOvercast.5 mph77%30.27 "Hg22 mi
2:00 AM40 °FOvercast.3 mph76%30.26 "Hg22 mi
1:00 AM40 °FOvercast.3 mph75%30.26 "Hg22 mi
12:00 AM41 °FOvercast.3 mph74%30.25 "Hg22 mi
11:00 PM
Fri, Mar 27
43 °FOvercast.3 mph65%30.24 "Hg22 mi
10:00 PM44 °FOvercast.3 mph63%30.23 "Hg22 mi
9:00 PM44 °FOvercast.2 mph63%30.22 "Hg5 mi
8:00 PM44 °FOvercast.5 mph61%30.20 "Hg25 mi
7:00 PM45 °FOvercast.3 mph58%30.17 "Hg25 mi
6:00 PM46 °FOvercast.5 mph54%30.14 "Hg25 mi
5:00 PM47 °FOvercast.7 mph51%30.12 "Hg22 mi
Weather by CustomWeather, © 2015

See weather overviewHow to use our weather pages